Weather observations for the past three days for
Columbia, Columbia Regional Airport
Imperial (Metric)
Date Time (cdt) Wind (mph) Vis. (mi.) Weather Sky Cond. Temperature (ºF) Relative Humidity Wind Chill (°F) Heat Index (°F) Pressure Precipitation (in)
Air Dwpt 6 hour altimeter (in) sea level (mb) 1 hr 3 hr 6 hr
Max. Min.
24 06:54 SE 8 10.00 Fair CLR 72 66.9 75 68 84% 29.96 1013.5
24 05:54 E 8 10.00 Fair CLR 71.1 66 84% 29.95 1013.2
24 04:54 SE 6 10.00 Fair CLR 72 66.9 84% 29.94 1012.7
24 03:54 SE 5 10.00 Fair CLR 72 66.9 84% 29.94 1012.7
24 02:54 SE 5 10.00 Fair CLR 69.1 66 90% 29.93 1012.4
24 01:54 E 3 10.00 Fair CLR 73 66.9 81% 29.93 1012.4
24 00:54 SE 3 10.00 Fair CLR 75.9 66.9 89.1 73.9 74% 77 29.93 1012.6
23 23:54 Calm 10.00 Fair CLR 75.9 66.9 74% 77 29.93 1012.6
23 22:54 Calm 10.00 Fair CLR 75.9 66.9 74% 77 29.93 1012.6
23 21:54 NW 3 10.00 Fair CLR 81 66 61% 83 29.93 1012.4
23 20:54 W 5 10.00 Fair CLR 84 64.9 53% 86 29.91 1012.0
23 19:54 W 7 10.00 Fair CLR 86 66 51% 88 29.91 1011.8
23 18:54 W 7 10.00 Fair CLR 89.1 64.9 91 86 45% 91 29.91 1011.8
23 17:54 W 6 10.00 Fair CLR 90 64 42% 91 29.9 1011.5
23 16:54 W 8 10.00 Fair CLR 90 64 42% 91 29.92 1011.9
23 15:54 W 3 10.00 Fair CLR 90 64 42% 91 29.92 1012.0
23 14:54 W 9 10.00 Fair CLR 90 64 42% 91 29.93 1012.4
23 13:54 W 8 10.00 Fair CLR 88 63 43% 89 29.93 1012.5
23 12:54 Vrbl 3 10.00 Fair CLR 87.1 64.9 87.1 75 48% 89 29.94 1012.8
23 11:54 N 7 10.00 Fair CLR 86 64 48% 87 29.94 1012.9
23 10:54 Vrbl 7 10.00 Fair CLR 84 64.9 53% 86 29.94 1012.7
23 09:54 NW 8 10.00 Fair CLR 81 64.9 58% 83 29.93 1012.5
23 08:54 N 10 10.00 A Few Clouds FEW013 77 66.9 71% 79 29.93 1012.4
23 07:54 NW 14 10.00 Mostly Cloudy BKN013 77 69.1 77% 79 29.91 1011.8
23 06:54 NW 12 10.00 Partly Cloudy SCT013 75 70 84 75 84% 75 29.89 1011.3
23 05:54 NW 9 10.00 Fair CLR 75 70 84% 75 29.88 1010.6
23 04:54 NW 15 10.00 Partly Cloudy FEW018 SCT060 78.1 71.1 79% 80 29.85 1009.7
23 03:54 NW 12 G 22 10.00 Overcast BKN023 OVC031 81 72 74% 85 29.83 1009.0
23 02:54 W 12 10.00 Overcast OVC039 82.9 70 65% 87 29.83 1008.9
23 01:54 W 14 10.00 Mostly Cloudy BKN060 84 70 63% 88 29.84 1009.1
23 00:54 SW 17 10.00 A Few Clouds FEW075 82.9 69.1 89.1 82 63% 87 29.82 1008.5
22 23:54 SW 13 10.00 Partly Cloudy SCT070 82 70 67% 86 29.82 1008.7
22 22:54 S 12 10.00 Fair CLR 82.9 70 65% 87 29.82 1008.8
22 21:54 S 12 10.00 Fair CLR 84 70 63% 88 29.83 1008.9
22 20:54 S 10 10.00 Fair CLR 84.9 71.1 63% 90 29.83 1009.0
22 19:54 S 12 10.00 Fair CLR 87.1 71.1 59% 93 29.85 1009.8
22 18:54 S 14 G 28 10.00 Fair CLR 89.1 70 91.9 88 53% 94 29.85 1009.8
22 17:54 S 16 10.00 Fair CLR 90 72 56% 97 29.86 1010.3
22 15:54 S 15 G 26 10.00 A Few Clouds FEW042 90 71.1 54% 96 29.9 1011.6
22 14:54 S 14 G 24 10.00 Partly Cloudy SCT042 89.1 71.1 55% 95 29.92 1012.2
22 13:54 S 15 G 28 10.00 Fair CLR 89.1 70 53% 94 29.93 1012.6
22 12:54 SW 17 G 25 10.00 Fair CLR 89.1 70 89.1 73 53% 94 29.95 1013.1
22 11:54 SW 18 G 26 10.00 Fair CLR 86 68 55% 89 29.97 1013.9
22 10:54 S 14 10.00 Fair CLR 84 68 59% 87 29.99 1014.6
22 09:54 S 10 10.00 Fair CLR 82 69.1 65% 85 30 1015.0
22 08:54 S 9 10.00 Fair CLR 81 69.1 67% 84 30.02 1015.7
22 07:54 S 9 10.00 Fair CLR 75.9 66.9 74% 77 30.04 1016.1
22 06:54 S 8 10.00 Fair CLR 73 66 73.9 72 79% 30.05 1016.4
22 05:54 S 7 10.00 Fair CLR 72 66.9 84% 30.05 1016.6
22 04:54 S 9 10.00 Fair CLR 73 66.9 81% 30.05 1016.6
22 03:54 S 9 10.00 Fair CLR 73.9 66.9 79% 30.05 1016.6
22 02:54 S 8 10.00 Fair CLR 73.9 66.9 79% 30.07 1017.2
22 01:54 S 7 10.00 Fair CLR 73 66.9 81% 30.08 1017.6
22 00:54 S 6 10.00 Fair CLR 73.9 66.9 87.1 73 79% 30.09 1018.0
21 23:54 S 5 10.00 Fair CLR 75.9 66.9 74% 77 30.09 1017.8
21 22:54 S 6 10.00 Fair CLR 77 66.9 71% 79 30.08 1017.5
21 20:54 S 6 10.00 Fair CLR 80.1 68 67% 83 30.07 1017.2
21 19:54 S 7 10.00 Fair CLR 84 69.1 61% 88 30.08 1017.5
21 18:54 S 9 10.00 Fair CLR 87.1 68 90 86 53% 91 30.09 1017.9
21 17:54 S 13 10.00 Fair CLR 89.1 69.1 52% 94 30.1 1018.3
21 16:54 S 12 10.00 Fair CLR 89.1 68 50% 93 30.12 1018.9
21 15:54 S 8 10.00 A Few Clouds FEW049 89.1 68 50% 93 30.14 1019.6
21 14:54 SW 9 10.00 Fair CLR 88 68 52% 92 30.16 1020.3
21 13:54 S 12 10.00 A Few Clouds FEW055 87.1 69.1 55% 91 30.18 1021.0
21 12:54 S 10 10.00 Fair CLR 88 70 88 72 55% 93 30.2 1021.6
21 11:54 S 8 10.00 Partly Cloudy FEW050 SCT065 84.9 70 61% 89 30.22 1022.3
21 10:54 S 12 G 17 10.00 Mostly Cloudy BKN047 BKN060 84 68 59% 87 30.23 1022.7
21 09:54 SW 9 10.00 Mostly Cloudy SCT043 BKN055 82.9 68 61% 86 30.23 1022.8
21 08:54 SW 12 10.00 Partly Cloudy FEW037 SCT060 SCT075 81 69.1 67% 84 30.24 1023.1
21 07:54 S 8 10.00 Fair CLR 75.9 68 77% 77 30.24 1023.0
Date Time (cdt) Wind (mph) Vis. (mi.) Weather Sky Cond. Air Dwpt Max. Min. Relative Humidity Wind Chill (°F) Heat Index (°F) altimeter (in) sea level (mb) 1 hr 3 hr 6 hr
6 hour
Temperature (ºF) Pressure Precipitation (in)